Starlink 5844

operational
NORAD ID: 57068 Int'l Des: 2023-088 Owner: SPXS Country: US Constellation: starlink
LEOCIRCULAR

Starlink 5844について

説明を読み込み中...

リアルタイム位置

3D地球を読み込み中...

次回通過

高度履歴

Altitude vs Time

uPlot chart will show altitude changes over time

軌道要素

1 57068U 23088W 25305.78340046 -.00000663 00000-0 -33996-4 0 9995
2 57068 43.0050 82.1010 0001004 278.1203 81.9525 15.02523339131132
Epoch: Nov 1, 2025 • Age: 30 hours

現在のステータス

高度 559.6 km
速度 7.58 km/s
衛星直下点 -5.95°S, 10.16°E
打ち上げ日 Jun 22, 2023
運用期間 2.3 years
タイプ internet

技術仕様

分類 Payload
質量 305.00 kg
乾燥質量 290.00 kg
総質量 305.00 kg
長さ 0.20 m
直径 2.80 m
スパン 9.00 m
形状 Box + pan
製造者 SPXS
バスタイプ Starlink
フェーズステータス In Orbit
所有者/国 SPXS/US

大規模コンステレーション

Loading constellations...